| time (UTC) | temp F | wind direction | speed MPH | gust MPH | rain 1hr in | rain 24hr in | rain mn in | humidity % | barometer mb |
| 20260831024639 | 63 | 336 | 1.0 | 5.0 | 0.00 | 0.01 | 0.01 | 89 | 1007.4 |
| 20260831024137 | 63 | 295 | 1.0 | 7.0 | 0.00 | 0.01 | 0.01 | 89 | 1007.4 |
| 20260831023635 | 63 | 349 | 2.0 | 7.0 | 0.00 | 0.01 | 0.01 | 90 | 1007.3 |
| 20260831023415 | 63 | 269 | 2.0 | 6.0 | 0.00 | 0.01 | 0.01 | 90 | 1007.3 |
| 20260831022631 | 63 | 285 | 1.0 | 5.0 | 0.00 | 0.01 | 0.01 | 90 | 1007.3 |
| 20260831022130 | 63 | 67 | 1.0 | 6.0 | 0.00 | 0.01 | 0.01 | 90 | 1007.3 |
| 20260831021903 | 63 | 10 | 1.0 | 6.0 | 0.00 | 0.01 | 0.01 | 90 | 1007.2 |
| 20260831021130 | 63 | 262 | 1.0 | 6.0 | 0.00 | 0.01 | 0.01 | 90 | 1007.1 |
| 20260831020630 | 63 | 321 | 1.0 | 6.0 | 0.00 | 0.01 | 0.01 | 90 | 1007.1 |
| 20260831020130 | 63 | 277 | 1.0 | 5.0 | 0.00 | 0.01 | 0.01 | 90 | 1007.1 |
| 20260831015632 | 63 | 155 | 2.0 | 5.0 | 0.00 | 0.01 | 0.01 | 91 | 1007.1 |
| 20260831015132 | 62 | 232 | 2.0 | 6.0 | 0.00 | 0.01 | 0.01 | 91 | 1007.1 |
| 20260831014632 | 62 | 359 | 1.0 | 6.0 | 0.00 | 0.01 | 0.01 | 91 | 1007.0 |
| 20260831014137 | 62 | 155 | 0.0 | 5.0 | 0.00 | 0.01 | 0.01 | 91 | 1007.0 |
| 20260831013636 | 62 | 336 | 0.0 | 2.0 | 0.01 | 0.01 | 0.01 | 91 | 1007.0 |
| 20260831013130 | 62 | 196 | 0.0 | 2.0 | 0.01 | 0.01 | 0.01 | 91 | 1007.1 |
| 20260831012630 | 63 | 259 | 0.0 | 2.0 | 0.01 | 0.01 | 0.01 | 90 | 1007.1 |
| 20260831012130 | 63 | 210 | 0.0 | 2.0 | 0.01 | 0.01 | 0.01 | 90 | 1007.1 |
| 20260831011901 | 63 | 44 | 0.0 | 3.0 | 0.01 | 0.01 | 0.01 | 90 | 1007.2 |
| 20260831011130 | 63 | 271 | 1.0 | 3.0 | 0.01 | 0.01 | 0.01 | 90 | 1007.3 |
| 20260831010630 | 63 | 265 | 1.0 | 3.0 | 0.01 | 0.01 | 0.01 | 89 | 1007.3 |
| 20260831010130 | 64 | 1 | 1.0 | 7.0 | 0.01 | 0.01 | 0.01 | 89 | 1007.3 |
| 20260831005902 | 64 | 293 | 1.0 | 7.0 | 0.01 | 0.01 | 0.01 | 89 | 1007.3 |
| 20260831005127 | 64 | 243 | 1.0 | 7.0 | 0.01 | 0.01 | 0.01 | 88 | 1007.3 |
| 20260831004626 | 64 | 243 | 2.0 | 7.0 | 0.01 | 0.01 | 0.01 | 88 | 1007.5 |
| 20260831004126 | 64 | 359 | 2.0 | 8.0 | 0.01 | 0.01 | 0.01 | 88 | 1007.6 |
| 20260831003851 | 63 | 273 | 1.0 | 8.0 | 0.00 | 0.00 | 0.00 | 89 | 1007.5 |
| 20260831003127 | 62 | 282 | 0.0 | 2.0 | 0.00 | 0.00 | 0.00 | 90 | 1007.5 |
| 20260831002859 | 62 | 250 | 0.0 | 2.0 | 0.00 | 0.00 | 0.00 | 90 | 1007.3 |
| 20260831002126 | 61 | 244 | 0.0 | 2.0 | 0.00 | 0.00 | 0.00 | 91 | 1007.2 |
| 20260831001627 | 61 | 272 | 0.0 | 0.0 | 0.00 | 0.00 | 0.00 | 92 | 1007.3 |
| 20260831001124 | 61 | 272 | 0.0 | 0.0 | 0.00 | 0.00 | 0.00 | 92 | 1007.3 |
| 20260831000626 | 61 | 272 | 0.0 | 0.0 | 0.00 | 0.00 | 0.00 | 92 | 1007.2 |
| 20260831000122 | 61 | 272 | 0.0 | 0.0 | 0.00 | 0.00 | 0.00 | 92 | 1007.2 |
| 20260830235622 | 61 | 272 | 0.0 | 0.0 | 0.00 | 0.00 | 0.00 | 92 | 1007.2 |
| 20260830235118 | 61 | 272 | 0.0 | 0.0 | 0.00 | 0.00 | 0.00 | 92 | 1007.4 |
| 20260830234632 | 61 | 272 | 0.0 | 0.0 | 0.00 | 0.00 | 0.00 | 91 | 1007.5 |
| 20260830234628 | 61 | 272 | 0.0 | 0.0 | 0.00 | 0.00 | 0.00 | 91 | 1007.5 |
| 20260830233613 | 61 | 272 | 0.0 | 0.0 | 0.00 | 0.00 | 0.00 | 91 | 1007.5 |
| 20260830233110 | 61 | 272 | 0.0 | 0.0 | 0.00 | 0.00 | 0.00 | 90 | 1007.5 |
| 20260830232609 | 61 | 272 | 0.0 | 0.0 | 0.00 | 0.00 | 0.00 | 90 | 1007.5 |
| 20260830232106 | 61 | 272 | 0.0 | 0.0 | 0.00 | 0.00 | 0.00 | 90 | 1007.4 |
| 20260830231607 | 62 | 272 | 0.0 | 0.0 | 0.00 | 0.00 | 0.00 | 90 | 1007.4 |
| 20260830231106 | 62 | 272 | 0.0 | 0.0 | 0.00 | 0.00 | 0.00 | 90 | 1007.4 |
| 20260830230604 | 62 | 272 | 0.0 | 0.0 | 0.00 | 0.00 | 0.00 | 90 | 1007.5 |
| 20260830230104 | 62 | 272 | 0.0 | 0.0 | 0.00 | 0.00 | 0.00 | 90 | 1007.5 |
| 20260830225604 | 62 | 272 | 0.0 | 0.0 | 0.00 | 0.00 | 0.00 | 90 | 1007.5 |
| 20260830225102 | 62 | 272 | 0.0 | 0.0 | 0.00 | 0.00 | 0.00 | 89 | 1007.6 |
| 20260830224601 | 62 | 272 | 0.0 | 0.0 | 0.00 | 0.00 | 0.00 | 89 | 1007.5 |
| 20260830224327 | 62 | 272 | 0.0 | 0.0 | 0.00 | 0.00 | 0.00 | 88 | 1007.6 |
| 20260830223558 | 62 | 272 | 0.0 | 0.0 | 0.00 | 0.00 | 0.00 | 88 | 1007.5 |
| 20260830223056 | 63 | 272 | 0.0 | 0.0 | 0.00 | 0.00 | 0.00 | 88 | 1007.6 |
| 20260830222558 | 63 | 272 | 0.0 | 0.0 | 0.00 | 0.00 | 0.00 | 88 | 1007.7 |
| 20260830222052 | 63 | 272 | 0.0 | 0.0 | 0.00 | 0.00 | 0.00 | 87 | 1007.6 |
| 20260830221553 | 63 | 272 | 0.0 | 0.0 | 0.00 | 0.00 | 0.00 | 87 | 1007.6 |
| 20260830221050 | 63 | 272 | 0.0 | 0.0 | 0.00 | 0.00 | 0.00 | 87 | 1007.6 |
| 20260830220548 | 63 | 272 | 0.0 | 0.0 | 0.00 | 0.00 | 0.00 | 87 | 1007.7 |
| 20260830220313 | 63 | 272 | 0.0 | 0.0 | 0.00 | 0.00 | 0.00 | 87 | 1007.8 |
| 20260830215545 | 63 | 272 | 0.0 | 0.0 | 0.00 | 0.00 | 0.00 | 87 | 1007.9 |
| 20260830215046 | 64 | 272 | 0.0 | 0.0 | 0.00 | 0.00 | 0.00 | 87 | 1007.9 |
| 20260830214543 | 64 | 272 | 0.0 | 1.0 | 0.00 | 0.00 | 0.00 | 87 | 1007.9 |
| 20260830214044 | 64 | 272 | 0.0 | 1.0 | 0.00 | 0.00 | 0.00 | 87 | 1007.9 |
| 20260830213542 | 63 | 272 | 0.0 | 1.0 | 0.00 | 0.00 | 0.00 | 87 | 1007.8 |
| 20260830213043 | 64 | 272 | 0.0 | 0.0 | 0.00 | 0.00 | 0.00 | 87 | 1007.9 |
| 20260830212538 | 64 | 272 | 0.0 | 0.0 | 0.00 | 0.00 | 0.00 | 87 | 1007.9 |
| 20260830212047 | 64 | 272 | 0.0 | 0.0 | 0.00 | 0.00 | 0.00 | 86 | 1008.0 |
| 20260830212043 | 64 | 272 | 0.0 | 0.0 | 0.00 | 0.00 | 0.00 | 87 | 1008.0 |
| 20260830211031 | 64 | 272 | 0.0 | 0.0 | 0.00 | 0.00 | 0.00 | 86 | 1008.0 |
| 20260830210529 | 64 | 272 | 0.0 | 0.0 | 0.00 | 0.00 | 0.00 | 86 | 1008.1 |
| 20260830210033 | 64 | 272 | 0.0 | 0.0 | 0.00 | 0.00 | 0.00 | 85 | 1008.1 |
| 20260830205527 | 64 | 272 | 0.0 | 0.0 | 0.00 | 0.00 | 0.00 | 85 | 1008.2 |
| 20260830205027 | 64 | 272 | 0.0 | 0.0 | 0.00 | 0.00 | 0.00 | 85 | 1008.1 |
| 20260830204528 | 65 | 272 | 0.0 | 0.0 | 0.00 | 0.00 | 0.00 | 85 | 1008.2 |
| 20260830204025 | 65 | 272 | 0.0 | 1.0 | 0.00 | 0.00 | 0.00 | 85 | 1008.2 |
| 20260830203526 | 65 | 272 | 0.0 | 1.0 | 0.00 | 0.00 | 0.00 | 85 | 1008.2 |
| 20260830203025 | 65 | 272 | 0.0 | 0.0 | 0.00 | 0.00 | 0.00 | 86 | 1008.2 |
| 20260830202524 | 65 | 272 | 0.0 | 0.0 | 0.00 | 0.00 | 0.00 | 86 | 1008.2 |
| 20260830202252 | 65 | 272 | 0.0 | 0.0 | 0.00 | 0.00 | 0.00 | 86 | 1008.3 |
| 20260830201527 | 65 | 272 | 0.0 | 1.0 | 0.00 | 0.00 | 0.00 | 87 | 1008.3 |
| 20260830201024 | 65 | 272 | 0.0 | 1.0 | 0.00 | 0.00 | 0.00 | 87 | 1008.3 |
| 20260830200523 | 65 | 272 | 0.0 | 0.0 | 0.00 | 0.00 | 0.00 | 87 | 1008.3 |
| 20260830200037 | 64 | 272 | 0.0 | 1.0 | 0.00 | 0.00 | 0.00 | 88 | 1008.3 |
| 20260830195521 | 65 | 272 | 0.0 | 1.0 | 0.00 | 0.00 | 0.00 | 88 | 1008.3 |
| 20260830195020 | 65 | 272 | 0.0 | 1.0 | 0.00 | 0.00 | 0.00 | 88 | 1008.4 |
| 20260830194524 | 65 | 272 | 0.0 | 1.0 | 0.00 | 0.00 | 0.00 | 88 | 1008.5 |
| 20260830194020 | 65 | 272 | 0.0 | 0.0 | 0.00 | 0.00 | 0.00 | 87 | 1008.5 |
| 20260830193744 | 65 | 272 | 0.0 | 0.0 | 0.00 | 0.00 | 0.00 | 86 | 1008.5 |
| 20260830193255 | 65 | 272 | 0.0 | 0.0 | 0.00 | 0.00 | 0.00 | 87 | 1008.6 |
| 20260830192519 | 65 | 272 | 0.0 | 0.0 | 0.00 | 0.00 | 0.00 | 86 | 1008.6 |
| 20260830192018 | 65 | 272 | 0.0 | 0.0 | 0.00 | 0.00 | 0.00 | 86 | 1008.6 |
| 20260830191526 | 65 | 272 | 0.0 | 0.0 | 0.00 | 0.00 | 0.00 | 86 | 1008.6 |
| 20260830191019 | 65 | 272 | 0.0 | 0.0 | 0.00 | 0.00 | 0.00 | 85 | 1008.7 |
| 20260830190522 | 66 | 272 | 0.0 | 0.0 | 0.00 | 0.00 | 0.00 | 85 | 1008.7 |
| 20260830190316 | 66 | 272 | 0.0 | 0.0 | 0.00 | 0.00 | 0.00 | 83 | 1008.7 |
| 20260830190041 | 66 | 272 | 0.0 | 0.0 | 0.00 | 0.00 | 0.00 | 84 | 1008.7 |
| 20260830185022 | 66 | 272 | 0.0 | 0.0 | 0.00 | 0.00 | 0.00 | 83 | 1008.6 |
| 20260830184522 | 67 | 272 | 0.0 | 0.0 | 0.00 | 0.00 | 0.00 | 82 | 1008.7 |
| 20260830184019 | 67 | 272 | 0.0 | 0.0 | 0.00 | 0.00 | 0.00 | 82 | 1008.7 |
| 20260830183521 | 67 | 272 | 0.0 | 0.0 | 0.00 | 0.00 | 0.00 | 82 | 1008.7 |
| 20260830183252 | 67 | 272 | 0.0 | 0.0 | 0.00 | 0.00 | 0.00 | 82 | 1008.7 |
| 20260830182520 | 67 | 272 | 0.0 | 0.0 | 0.00 | 0.00 | 0.00 | 81 | 1008.7 |
| 20260830182022 | 68 | 272 | 0.0 | 0.0 | 0.00 | 0.00 | 0.00 | 81 | 1008.7 |
| 20260830181522 | 68 | 272 | 0.0 | 0.0 | 0.00 | 0.00 | 0.00 | 81 | 1008.7 |
| 20260830181257 | 68 | 272 | 0.0 | 0.0 | 0.00 | 0.00 | 0.00 | 80 | 1008.7 |
| 20260830180519 | 69 | 272 | 0.0 | 0.0 | 0.00 | 0.00 | 0.00 | 78 | 1008.7 |
| 20260830180032 | 69 | 272 | 0.0 | 0.0 | 0.00 | 0.00 | 0.00 | 79 | 1008.7 |
| 20260830175753 | 70 | 272 | 0.0 | 0.0 | 0.00 | 0.00 | 0.00 | 78 | 1008.6 |
| 20260830175005 | 70 | 272 | 0.0 | 0.0 | 0.00 | 0.01 | 0.00 | 77 | 1008.6 |
| 20260830174501 | 71 | 272 | 0.0 | 0.0 | 0.00 | 0.01 | 0.00 | 76 | 1008.7 |
| 20260830173954 | 71 | 272 | 0.0 | 0.0 | 0.00 | 0.01 | 0.00 | 75 | 1008.6 |
| 20260830173448 | 71 | 272 | 0.0 | 2.0 | 0.00 | 0.01 | 0.00 | 74 | 1008.7 |
| 20260830172949 | 72 | 272 | 0.0 | 2.0 | 0.00 | 0.02 | 0.00 | 72 | 1008.8 |
| 20260830172741 | 72 | 208 | 0.0 | 1.0 | 0.00 | 0.02 | 0.00 | 72 | 1008.9 |
| 20260830171945 | 72 | 208 | 0.0 | 2.0 | 0.00 | 0.02 | 0.00 | 72 | 1009.0 |
| 20260830171443 | 72 | 189 | 0.0 | 2.0 | 0.00 | 0.02 | 0.00 | 71 | 1008.9 |
| 20260830170942 | 72 | 235 | 0.0 | 1.0 | 0.00 | 0.03 | 0.00 | 71 | 1008.9 |
| 20260830170727 | 73 | 235 | 0.0 | 3.0 | 0.00 | 0.03 | 0.00 | 70 | 1008.9 |
| 20260830165937 | 72 | 230 | 1.0 | 3.0 | 0.00 | 0.03 | 0.00 | 71 | 1009.0 |
| 20260830165725 | 72 | 279 | 0.0 | 3.0 | 0.00 | 0.03 | 0.00 | 70 | 1009.1 |
| 20260830164935 | 72 | 274 | 1.0 | 5.0 | 0.00 | 0.03 | 0.00 | 68 | 1009.1 |
| 20260830164435 | 72 | 271 | 1.0 | 5.0 | 0.00 | 0.03 | 0.00 | 67 | 1009.1 |
| 20260830164225 | 72 | 11 | 1.0 | 6.0 | 0.00 | 0.03 | 0.00 | 67 | 1009.1 |
| 20260830163433 | 72 | 293 | 2.0 | 6.0 | 0.00 | 0.03 | 0.00 | 67 | 1009.2 |
| 20260830162931 | 72 | 275 | 1.0 | 7.0 | 0.00 | 0.04 | 0.00 | 66 | 1009.1 |
| 20260830162431 | 72 | 267 | 2.0 | 7.0 | 0.00 | 0.05 | 0.00 | 66 | 1009.1 |
| 20260830161947 | 73 | 287 | 1.0 | 7.0 | 0.00 | 0.06 | 0.00 | 67 | 1009.3 |
| 20260830161942 | 73 | 316 | 1.0 | 5.0 | 0.00 | 0.06 | 0.00 | 67 | 1009.2 |
| 20260830161221 | 73 | 168 | 1.0 | 7.0 | 0.00 | 0.07 | 0.00 | 67 | 1009.2 |
| 20260830160432 | 73 | 297 | 2.0 | 5.0 | 0.00 | 0.07 | 0.00 | 68 | 1009.2 |
| 20260830155932 | 73 | 356 | 2.0 | 5.0 | 0.00 | 0.07 | 0.00 | 67 | 1009.3 |
| 20260830155714 | 73 | 336 | 2.0 | 5.0 | 0.00 | 0.07 | 0.00 | 67 | 1009.2 |
| 20260830154920 | 73 | 278 | 2.0 | 8.0 | 0.00 | 0.07 | 0.00 | 67 | 1009.3 |
| 20260830154709 | 73 | 307 | 3.0 | 8.0 | 0.00 | 0.07 | 0.00 | 67 | 1009.3 |
| 20260830154204 | 73 | 272 | 3.0 | 7.0 | 0.00 | 0.07 | 0.00 | 66 | 1009.3 |
| 20260830153701 | 73 | 162 | 2.0 | 8.0 | 0.00 | 0.07 | 0.00 | 66 | 1009.3 |
| 20260830152915 | 73 | 193 | 2.0 | 8.0 | 0.00 | 0.07 | 0.00 | 66 | 1009.3 |
| 20260830152414 | 73 | 158 | 2.0 | 7.0 | 0.00 | 0.07 | 0.00 | 66 | 1009.3 |
| 20260830152159 | 73 | 307 | 2.0 | 8.0 | 0.00 | 0.07 | 0.00 | 66 | 1009.4 |
| 20260830151412 | 73 | 276 | 2.0 | 8.0 | 0.00 | 0.07 | 0.00 | 65 | 1009.5 |
| 20260830150910 | 73 | 313 | 2.0 | 6.0 | 0.00 | 0.07 | 0.00 | 66 | 1009.4 |
| 20260830150410 | 73 | 319 | 2.0 | 7.0 | 0.00 | 0.07 | 0.00 | 65 | 1009.5 |
| 20260830145910 | 73 | 297 | 3.0 | 9.0 | 0.00 | 0.07 | 0.00 | 66 | 1009.5 |
| 20260830145408 | 73 | 271 | 3.0 | 9.0 | 0.00 | 0.07 | 0.00 | 65 | 1009.5 |
| 20260830144910 | 73 | 299 | 2.0 | 7.0 | 0.00 | 0.07 | 0.00 | 64 | 1009.6 |
| 20260830144409 | 73 | 281 | 3.0 | 10.0 | 0.00 | 0.07 | 0.00 | 66 | 1009.6 |
| 20260830143907 | 73 | 278 | 3.0 | 10.0 | 0.00 | 0.07 | 0.00 | 64 | 1009.6 |
| 20260830143406 | 73 | 288 | 3.0 | 7.0 | 0.00 | 0.07 | 0.00 | 63 | 1009.5 |
| 20260830142907 | 74 | 283 | 2.0 | 7.0 | 0.00 | 0.07 | 0.00 | 65 | 1009.5 |
| 20260830142405 | 74 | 301 | 2.0 | 5.0 | 0.00 | 0.07 | 0.00 | 64 | 1009.6 |
| 20260830141924 | 74 | 263 | 2.0 | 7.0 | 0.00 | 0.07 | 0.00 | 63 | 1009.6 |
| 20260830141918 | 74 | 174 | 2.0 | 7.0 | 0.00 | 0.07 | 0.00 | 63 | 1009.5 |
| 20260830140858 | 74 | 289 | 3.0 | 9.0 | 0.00 | 0.07 | 0.00 | 65 | 1009.6 |
| 20260830140352 | 74 | 332 | 3.0 | 10.0 | 0.00 | 0.07 | 0.00 | 62 | 1009.7 |
| 20260830135852 | 74 | 62 | 2.0 | 10.0 | 0.00 | 0.07 | 0.00 | 63 | 1009.7 |
| 20260830135352 | 74 | 256 | 3.0 | 11.0 | 0.00 | 0.07 | 0.00 | 63 | 1009.7 |
| 20260830134852 | 74 | 248 | 4.0 | 11.0 | 0.00 | 0.07 | 0.00 | 63 | 1009.7 |
| 20260830134353 | 74 | 136 | 3.0 | 11.0 | 0.00 | 0.07 | 0.00 | 61 | 1009.7 |
| 20260830133856 | 74 | 296 | 3.0 | 11.0 | 0.00 | 0.07 | 0.00 | 64 | 1009.7 |
| 20260830133351 | 73 | 214 | 2.0 | 10.0 | 0.00 | 0.07 | 0.00 | 64 | 1009.6 |
| 20260830132852 | 74 | 336 | 2.0 | 9.0 | 0.00 | 0.07 | 0.00 | 64 | 1009.7 |
| 20260830132348 | 74 | 266 | 3.0 | 9.0 | 0.00 | 0.07 | 0.00 | 63 | 1009.8 |
| 20260830131848 | 74 | 316 | 3.0 | 8.0 | 0.00 | 0.07 | 0.00 | 62 | 1009.7 |
| 20260830131349 | 74 | 172 | 4.0 | 11.0 | 0.00 | 0.07 | 0.00 | 65 | 1009.8 |
| 20260830130849 | 73 | 316 | 3.0 | 11.0 | 0.00 | 0.07 | 0.00 | 63 | 1009.8 |
| 20260830130349 | 74 | 281 | 3.0 | 10.0 | 0.00 | 0.07 | 0.00 | 62 | 1009.8 |
| 20260830125849 | 73 | 311 | 3.0 | 10.0 | 0.00 | 0.07 | 0.00 | 63 | 1009.8 |
| 20260830125348 | 73 | 286 | 3.0 | 9.0 | 0.00 | 0.07 | 0.00 | 65 | 1009.8 |
| 20260830124848 | 74 | 307 | 2.0 | 9.0 | 0.00 | 0.07 | 0.00 | 66 | 1009.8 |
| 20260830124343 | 73 | 214 | 2.0 | 9.0 | 0.00 | 0.07 | 0.00 | 67 | 1009.8 |
| 20260830124134 | 73 | 194 | 3.0 | 8.0 | 0.00 | 0.07 | 0.00 | 68 | 1009.8 |
| 20260830123343 | 72 | 330 | 3.0 | 8.0 | 0.00 | 0.07 | 0.00 | 68 | 1009.8 |
| 20260830122842 | 72 | 165 | 3.0 | 9.0 | 0.00 | 0.07 | 0.00 | 67 | 1009.8 |
| 20260830122343 | 72 | 304 | 4.0 | 9.0 | 0.00 | 0.07 | 0.00 | 67 | 1009.8 |
| 20260830121842 | 72 | 309 | 3.0 | 9.0 | 0.00 | 0.07 | 0.00 | 68 | 1009.8 |
| 20260830121630 | 72 | 153 | 3.0 | 9.0 | 0.00 | 0.07 | 0.00 | 70 | 1009.8 |
| 20260830120843 | 72 | 264 | 3.0 | 7.0 | 0.00 | 0.07 | 0.00 | 70 | 1009.8 |
| 20260830120631 | 72 | 273 | 3.0 | 7.0 | 0.00 | 0.07 | 0.00 | 70 | 1009.7 |
| 20260830115842 | 72 | 268 | 3.0 | 7.0 | 0.00 | 0.07 | 0.00 | 70 | 1009.7 |
| 20260830115342 | 72 | 252 | 3.0 | 8.0 | 0.00 | 0.07 | 0.00 | 72 | 1009.6 |
| 20260830114842 | 71 | 269 | 3.0 | 9.0 | 0.00 | 0.07 | 0.00 | 71 | 1009.7 |
| 20260830114342 | 71 | 280 | 3.0 | 9.0 | 0.00 | 0.07 | 0.00 | 71 | 1009.6 |
| 20260830113842 | 71 | 340 | 2.0 | 8.0 | 0.00 | 0.07 | 0.00 | 72 | 1009.7 |
| 20260830113342 | 71 | 262 | 2.0 | 6.0 | 0.00 | 0.07 | 0.00 | 72 | 1009.7 |
| 20260830113147 | 71 | 13 | 2.0 | 8.0 | 0.00 | 0.07 | 0.00 | 75 | 1009.6 |
| 20260830112342 | 70 | 269 | 3.0 | 8.0 | 0.00 | 0.07 | 0.00 | 75 | 1009.6 |
| 20260830111842 | 70 | 319 | 3.0 | 9.0 | 0.00 | 0.07 | 0.00 | 74 | 1009.6 |
| 20260830111343 | 70 | 316 | 3.0 | 10.0 | 0.00 | 0.07 | 0.00 | 74 | 1009.6 |
| 20260830110843 | 70 | 237 | 2.0 | 10.0 | 0.00 | 0.07 | 0.00 | 75 | 1009.8 |
| 20260830110356 | 69 | 283 | 3.0 | 9.0 | 0.00 | 0.07 | 0.00 | 76 | 1009.7 |
| 20260830105843 | 69 | 50 | 3.0 | 9.0 | 0.00 | 0.07 | 0.00 | 75 | 1009.7 |
| 20260830105342 | 69 | 63 | 3.0 | 8.0 | 0.00 | 0.07 | 0.00 | 75 | 1009.7 |
| 20260830105145 | 69 | 282 | 3.0 | 8.0 | 0.00 | 0.07 | 0.00 | 75 | 1009.7 |
| 20260830104338 | 69 | 250 | 3.0 | 7.0 | 0.00 | 0.07 | 0.00 | 75 | 1009.7 |
| 20260830103836 | 69 | 297 | 3.0 | 10.0 | 0.00 | 0.07 | 0.00 | 76 | 1009.7 |
| 20260830103336 | 69 | 304 | 3.0 | 10.0 | 0.00 | 0.07 | 0.00 | 76 | 1009.6 |
| 20260830102835 | 69 | 321 | 3.0 | 9.0 | 0.00 | 0.07 | 0.00 | 76 | 1009.6 |
| 20260830102331 | 69 | 337 | 3.0 | 12.0 | 0.00 | 0.07 | 0.00 | 76 | 1009.6 |
| 20260830101830 | 69 | 40 | 3.0 | 12.0 | 0.00 | 0.07 | 0.00 | 76 | 1009.7 |
| 20260830101331 | 69 | 335 | 4.0 | 13.0 | 0.00 | 0.07 | 0.00 | 77 | 1009.6 |
| 20260830100829 | 69 | 173 | 4.0 | 13.0 | 0.00 | 0.07 | 0.00 | 77 | 1009.6 |
| 20260830100331 | 69 | 293 | 4.0 | 12.0 | 0.00 | 0.07 | 0.00 | 77 | 1009.7 |
| 20260830095830 | 69 | 304 | 3.0 | 12.0 | 0.00 | 0.07 | 0.00 | 77 | 1009.7 |
| 20260830095617 | 68 | 234 | 3.0 | 9.0 | 0.00 | 0.07 | 0.00 | 78 | 1009.7 |
| 20260830094825 | 68 | 342 | 3.0 | 10.0 | 0.00 | 0.07 | 0.00 | 78 | 1009.6 |
| 20260830094319 | 68 | 236 | 4.0 | 12.0 | 0.00 | 0.07 | 0.00 | 78 | 1009.6 |
| 20260830093813 | 68 | 260 | 4.0 | 12.0 | 0.00 | 0.07 | 0.00 | 79 | 1009.6 |
| 20260830093314 | 68 | 252 | 4.0 | 12.0 | 0.00 | 0.07 | 0.00 | 78 | 1009.6 |
| 20260830092813 | 68 | 254 | 4.0 | 12.0 | 0.00 | 0.07 | 0.00 | 78 | 1009.4 |
| 20260830092313 | 68 | 1 | 4.0 | 13.0 | 0.00 | 0.07 | 0.00 | 78 | 1009.5 |
| 20260830091813 | 68 | 239 | 3.0 | 13.0 | 0.00 | 0.07 | 0.00 | 79 | 1009.4 |
| 20260830091310 | 67 | 312 | 3.0 | 8.0 | 0.00 | 0.07 | 0.00 | 80 | 1009.4 |
| 20260830090810 | 67 | 323 | 3.0 | 10.0 | 0.00 | 0.07 | 0.00 | 80 | 1009.4 |
| 20260830090309 | 67 | 16 | 3.0 | 10.0 | 0.00 | 0.07 | 0.00 | 81 | 1009.4 |
| 20260830085808 | 67 | 315 | 3.0 | 9.0 | 0.00 | 0.07 | 0.00 | 81 | 1009.4 |
| 20260830085307 | 67 | 281 | 4.0 | 15.0 | 0.00 | 0.07 | 0.00 | 81 | 1009.3 |
| 20260830084809 | 67 | 249 | 4.0 | 15.0 | 0.00 | 0.07 | 0.00 | 80 | 1009.2 |
| 20260830084306 | 66 | 255 | 4.0 | 11.0 | 0.00 | 0.07 | 0.00 | 81 | 1009.2 |
| 20260830083805 | 66 | 182 | 3.0 | 9.0 | 0.00 | 0.07 | 0.00 | 81 | 1009.2 |
| 20260830083552 | 66 | 244 | 3.0 | 8.0 | 0.00 | 0.07 | 0.00 | 82 | 1009.2 |
| 20260830082803 | 66 | 321 | 3.0 | 10.0 | 0.00 | 0.07 | 0.00 | 81 | 1009.2 |
| 20260830082306 | 66 | 6 | 3.0 | 10.0 | 0.00 | 0.07 | 0.00 | 81 | 1009.1 |
| 20260830081803 | 66 | 343 | 3.0 | 10.0 | 0.00 | 0.07 | 0.00 | 82 | 1009.0 |
| 20260830081308 | 66 | 269 | 3.0 | 10.0 | 0.00 | 0.07 | 0.00 | 82 | 1009.0 |
| 20260830080809 | 66 | 141 | 4.0 | 11.0 | 0.00 | 0.07 | 0.00 | 82 | 1008.9 |
| 20260830080307 | 66 | 295 | 4.0 | 11.0 | 0.00 | 0.07 | 0.00 | 82 | 1008.9 |
| 20260830075801 | 65 | 282 | 4.0 | 14.0 | 0.00 | 0.07 | 0.00 | 83 | 1008.8 |
| 20260830075537 | 65 | 156 | 4.0 | 14.0 | 0.00 | 0.07 | 0.00 | 82 | 1008.8 |
| 20260830074751 | 65 | 295 | 3.0 | 12.0 | 0.00 | 0.07 | 0.00 | 82 | 1008.8 |
| 20260830074243 | 65 | 18 | 3.0 | 9.0 | 0.00 | 0.07 | 0.00 | 83 | 1008.7 |
| 20260830073736 | 65 | 307 | 3.0 | 9.0 | 0.00 | 0.07 | 0.00 | 83 | 1008.7 |
| 20260830073500 | 65 | 284 | 3.0 | 10.0 | 0.00 | 0.07 | 0.00 | 83 | 1008.5 |
| 20260830072733 | 65 | 280 | 3.0 | 10.0 | 0.00 | 0.07 | 0.00 | 83 | 1008.5 |
| 20260830072233 | 65 | 143 | 3.0 | 9.0 | 0.00 | 0.07 | 0.00 | 83 | 1008.4 |
| 20260830071734 | 64 | 310 | 3.0 | 9.0 | 0.00 | 0.07 | 0.00 | 84 | 1008.3 |
| 20260830071233 | 64 | 275 | 4.0 | 10.0 | 0.00 | 0.07 | 0.00 | 84 | 1008.3 |
| 20260830070733 | 64 | 296 | 4.0 | 10.0 | 0.00 | 0.07 | 0.00 | 84 | 1008.3 |
| 20260830070233 | 64 | 199 | 3.0 | 10.0 | 0.00 | 0.07 | 0.00 | 84 | 1008.3 |
| 20260830065957 | 64 | 188 | 3.0 | 10.0 | 0.00 | 0.07 | 0.00 | 84 | 1008.3 |
| 20260830065232 | 64 | 128 | 3.0 | 8.0 | 0.00 | 0.07 | 0.00 | 84 | 1008.2 |
| 20260830064731 | 64 | 297 | 3.0 | 10.0 | 0.00 | 0.07 | 0.00 | 83 | 1008.2 |
| 20260830064230 | 64 | 162 | 3.0 | 13.0 | 0.00 | 0.07 | 0.00 | 83 | 1008.1 |
| 20260830063730 | 64 | 250 | 3.0 | 13.0 | 0.00 | 0.07 | 0.00 | 84 | 1008.1 |
| 20260830063457 | 64 | 269 | 3.0 | 9.0 | 0.00 | 0.07 | 0.00 | 84 | 1008.0 |
| 20260830062730 | 64 | 173 | 3.0 | 9.0 | 0.00 | 0.07 | 0.00 | 84 | 1008.1 |
| 20260830062230 | 64 | 291 | 3.0 | 8.0 | 0.00 | 0.07 | 0.00 | 84 | 1008.0 |
| 20260830061956 | 64 | 307 | 3.0 | 9.0 | 0.00 | 0.07 | 0.00 | 83 | 1008.0 |
| 20260830061230 | 64 | 278 | 3.0 | 14.0 | 0.00 | 0.07 | 0.00 | 83 | 1007.9 |
| 20260830060725 | 64 | 169 | 4.0 | 14.0 | 0.00 | 0.07 | 0.00 | 83 | 1007.9 |
| 20260830060446 | 64 | 180 | 4.0 | 11.0 | 0.00 | 0.07 | 0.00 | 83 | 1007.8 |
| 20260830055716 | 64 | 280 | 3.0 | 11.0 | 0.00 | 0.07 | 0.00 | 83 | 1007.7 |
| 20260830055443 | 64 | 291 | 3.0 | 10.0 | 0.00 | 0.07 | 0.00 | 83 | 1007.6 |
| 20260830054715 | 64 | 71 | 3.0 | 10.0 | 0.00 | 0.07 | 0.00 | 83 | 1007.5 |
| 20260830054216 | 64 | 323 | 3.0 | 9.0 | 0.00 | 0.07 | 0.00 | 83 | 1007.6 |
| 20260830053714 | 64 | 209 | 3.0 | 9.0 | 0.00 | 0.07 | 0.00 | 83 | 1007.4 |
| 20260830053213 | 64 | 274 | 3.0 | 9.0 | 0.00 | 0.07 | 0.00 | 83 | 1007.3 |
| 20260830052713 | 64 | 333 | 4.0 | 11.0 | 0.00 | 0.07 | 0.00 | 83 | 1007.2 |
| 20260830052211 | 64 | 283 | 3.0 | 11.0 | 0.00 | 0.07 | 0.00 | 83 | 1007.2 |
| 20260830051732 | 64 | 302 | 3.0 | 10.0 | 0.00 | 0.07 | 0.00 | 84 | 1007.2 |
| 20260830051723 | 64 | 276 | 3.0 | 8.0 | 0.00 | 0.07 | 0.00 | 84 | 1007.2 |
| 20260830050938 | 63 | 336 | 3.0 | 10.0 | 0.00 | 0.07 | 0.00 | 84 | 1007.1 |
| 20260830050207 | 63 | 306 | 3.0 | 10.0 | 0.00 | 0.07 | 0.00 | 84 | 1007.1 |
| 20260830045707 | 63 | 269 | 2.0 | 6.0 | 0.00 | 0.07 | 0.00 | 84 | 1007.1 |
| 20260830045208 | 63 | 196 | 2.0 | 8.0 | 0.00 | 0.07 | 0.00 | 84 | 1007.0 |
| 20260830044930 | 63 | 308 | 3.0 | 9.0 | 0.00 | 0.07 | 0.00 | 84 | 1007.0 |
| 20260830044204 | 63 | 77 | 3.0 | 9.0 | 0.00 | 0.07 | 0.00 | 84 | 1006.9 |
| 20260830043706 | 63 | 221 | 2.0 | 10.0 | 0.00 | 0.07 | 0.00 | 84 | 1006.9 |
| 20260830043204 | 63 | 141 | 2.0 | 10.0 | 0.00 | 0.07 | 0.00 | 84 | 1006.8 |
| 20260830042933 | 63 | 332 | 3.0 | 9.0 | 0.00 | 0.07 | 0.00 | 84 | 1006.9 |
| 20260830042204 | 63 | 335 | 3.0 | 9.0 | 0.00 | 0.07 | 0.00 | 84 | 1006.8 |
| 20260830041948 | 63 | 321 | 3.0 | 13.0 | 0.00 | 0.07 | 0.00 | 84 | 1006.8 |
| 20260830041718 | 63 | 1 | 3.0 | 9.0 | 0.00 | 0.07 | 0.00 | 84 | 1006.8 |
| 20260830040703 | 63 | 268 | 3.0 | 13.0 | 0.00 | 0.07 | 0.00 | 84 | 1006.8 |
| 20260830040158 | 64 | 251 | 3.0 | 10.0 | 0.00 | 0.07 | 0.00 | 84 | 1006.8 |
| 20260830035659 | 64 | 258 | 3.0 | 10.0 | 0.00 | 0.07 | 0.00 | 84 | 1006.8 |
| 20260830035157 | 64 | 144 | 3.0 | 11.0 | 0.00 | 0.07 | 0.00 | 84 | 1006.7 |
| 20260830034658 | 64 | 301 | 3.0 | 11.0 | 0.00 | 0.07 | 0.00 | 84 | 1006.8 |
| 20260830034157 | 64 | 272 | 3.0 | 8.0 | 0.00 | 0.07 | 0.00 | 84 | 1006.8 |
| 20260830033656 | 64 | 276 | 3.0 | 8.0 | 0.00 | 0.07 | 0.00 | 84 | 1006.8 |
| 20260830033423 | 64 | 309 | 3.0 | 8.0 | 0.00 | 0.07 | 0.00 | 84 | 1006.8 |
| 20260830032657 | 64 | 266 | 3.0 | 11.0 | 0.00 | 0.07 | 0.00 | 84 | 1006.8 |
| 20260830032157 | 64 | 281 | 2.0 | 11.0 | 0.00 | 0.07 | 0.00 | 84 | 1006.7 |
| 20260830031657 | 64 | 247 | 3.0 | 7.0 | 0.00 | 0.07 | 0.00 | 84 | 1006.8 |
| 20260830031156 | 64 | 330 | 3.0 | 14.0 | 0.00 | 0.07 | 0.00 | 84 | 1006.8 |
| 20260830030651 | 64 | 316 | 2.0 | 14.0 | 0.00 | 0.07 | 0.00 | 84 | 1006.8 |
| 20260830030145 | 64 | 295 | 2.0 | 6.0 | 0.00 | 0.07 | 0.00 | 84 | 1006.8 |
| 20260830025905 | 64 | 184 | 2.0 | 6.0 | 0.00 | 0.07 | 0.00 | 84 | 1006.7 |
| 20260830025139 | 64 | 240 | 2.0 | 7.0 | 0.00 | 0.07 | 0.00 | 83 | 1006.7 |